Notices

What's New in latest Release from April 7th, 2021:

- Updated Glossary, including Speed of Maximum Gust, and Total Hourly Precipitation

- Updated national and regional climate services offices contacts and prices information

- Addition of station inventory lists for 1981-2010, 1971-2000, and 1961-1990 Normals.

If you haven't already, please take our survey and provide feedback about our website: https://eccc.sondage-survey.ca/f/LanguageSelection.aspx?s=442ca660-fcf1-47c0-95a9-59707d6fd709

Hourly Data Report for February 28, 2021

MIRAMICHI RCS
NEW BRUNSWICK
Current Station Operator: ECCC - MSC

47°00'34.000" N
65°27'54.000" W
33.00 m
8100989
71744
ACQ

Download Data

Hourly Data (February 2021)
Hourly Data Report for February 28, 2021
TIME
LST
Temp Definition
°C
Dew Point Definition
°C
Rel Hum Definition
%
Precip. Amount Definition
mm

Wind Dir Definition
10's deg

Wind Spd Definition
km/h
Visibility Definition
km
Stn Press Definition
kPa
Hmdx Definition


Wind Chill Definition


Weather Definition


00:00 -1.1 -1.6 96 LegendMM 7 7   100.25   -4 LegendNANA
01:00 -1.8 -2.4 96 LegendMM 34 2   100.15   -3 LegendNANA
02:00 -1.9 -2.4 96 LegendMM 29 5   100.17   -4 LegendNANA
03:00 -1.2 -1.8 96 LegendMM 27 15   100.28   -6 LegendNANA
04:00 -1.2 -2.3 92 LegendMM 29 13   100.46   -5 LegendNANA
05:00 -0.9 -2.9 86 LegendMM 30 21   100.65   -7 LegendNANA
06:00 -1.0 -3.4 84 LegendMM 29 17   100.89   -6 LegendNANA
07:00 -0.8 -3.7 81 LegendMM 30 17   101.07   -6 LegendNANA
08:00 -0.3 -3.5 79 LegendMM 29 17   101.19   -5 LegendNANA
09:00 0.5 -3.4 75 LegendMM 30 16   101.30     LegendNANA
10:00 0.4 -4.0 72 LegendMM 30 20   101.47     LegendNANA
11:00 1.4 -3.9 68 LegendMM 31 17   101.54     LegendNANA
12:00 2.0 -4.2 63 LegendMM 30 20   101.58     LegendNANA
13:00 2.6 -4.2 61 LegendMM 30 20   101.62     LegendNANA
14:00 2.9 -4.2 60 LegendMM 31 14   101.67     LegendNANA
15:00 2.7 -4.7 58 LegendMM 30 16   101.71     LegendNANA
16:00 2.0 -4.8 61 LegendMM 32 11   101.79     LegendNANA
17:00 1.8 -5.2 60 LegendMM 30 12   101.84     LegendNANA
18:00 0.8 -5.1 64 LegendMM 31 5   101.89     LegendNANA
19:00 -2.2 -5.2 80 LegendMM 27 3   101.92   -3 LegendNANA
20:00 -4.0 -6.1 85 LegendMM 28 2   101.96   -5 LegendNANA
21:00 -5.8 -6.9 92 LegendMM 18 1   101.91   -6 LegendNANA
22:00 -6.0 -7.2 92 LegendMM 4 2   101.83   -7 LegendNANA
23:00 -7.3 -7.7 97 LegendMM 9 1   101.78   -8 LegendNANA

Notes on Data Quality.

Legend

  • E = Estimated
  • M = Missing
  • NA = Not Available*
  • [empty] = Indicates an unobserved value
Date modified: